Time,TemperatureF,DewpointF,PressureIn,WindDirection,WindDirectionDegrees,WindSpeedMPH,WindSpeedGustMPH,Humidity,HourlyPrecipIn,Conditions,Clouds,dailyrainin,SoftwareType,DateUTC
2014-01-08 00:13:00,12.0,2.0,-100.00,South,189,2.0,3.0,64,0.00,,,0.00,,2014-01-08 05:13:00,
2014-01-08 00:22:00,12.0,3.0,-100.00,South,186,4.0,5.0,65,0.00,,,0.00,,2014-01-08 05:22:00,
2014-01-08 00:32:00,12.0,3.0,-100.00,South,186,4.0,5.0,65,0.00,,,0.00,,2014-01-08 05:32:00,
2014-01-08 00:52:00,12.0,3.0,-100.00,South,186,5.0,6.0,66,0.00,,,0.00,,2014-01-08 05:52:00,
2014-01-08 01:12:00,12.0,3.0,-100.00,South,191,4.0,6.0,64,0.00,,,0.00,,2014-01-08 06:12:00,
2014-01-08 01:23:00,12.0,2.0,-100.00,South,191,3.0,4.0,65,0.00,,,0.00,,2014-01-08 06:23:00,
2014-01-08 01:32:00,12.0,2.0,-100.00,South,191,3.0,4.0,65,0.00,,,0.00,,2014-01-08 06:32:00,
2014-01-08 01:53:00,12.0,2.0,-100.00,South,179,2.0,3.0,66,0.00,,,0.00,,2014-01-08 06:53:00,
2014-01-08 02:12:00,11.0,4.0,-100.00,SSW,196,0.0,0.0,74,0.00,,,0.00,,2014-01-08 07:12:00,
2014-01-08 02:22:00,9.0,4.0,-100.00,South,175,1.0,1.0,80,0.00,,,0.00,,2014-01-08 07:22:00,
2014-01-08 02:32:00,9.0,4.0,-100.00,South,175,1.0,1.0,80,0.00,,,0.00,,2014-01-08 07:32:00,
2014-01-08 02:53:00,9.0,4.0,-100.00,SSE,154,0.0,1.0,83,0.00,,,0.00,,2014-01-08 07:53:00,
2014-01-08 03:12:00,9.0,5.0,-100.00,SSE,148,0.0,0.0,83,0.00,,,0.00,,2014-01-08 08:12:00,
2014-01-08 03:22:00,8.0,5.0,-100.00,SSE,148,0.0,0.0,84,0.00,,,0.00,,2014-01-08 08:22:00,
2014-01-08 03:33:00,8.0,5.0,-100.00,SSE,148,0.0,0.0,84,0.00,,,0.00,,2014-01-08 08:33:00,
2014-01-08 03:53:00,8.0,4.0,-100.00,NNW,330,0.0,1.0,86,0.00,,,0.00,,2014-01-08 08:53:00,
2014-01-08 04:12:00,8.0,4.0,-100.00,NNW,333,1.0,2.0,83,0.00,,,0.00,,2014-01-08 09:12:00,
2014-01-08 04:22:00,8.0,4.0,-100.00,NNW,344,0.0,0.0,83,0.00,,,0.00,,2014-01-08 09:22:00,
2014-01-08 04:33:00,8.0,4.0,-100.00,NNW,344,0.0,0.0,83,0.00,,,0.00,,2014-01-08 09:33:00,
2014-01-08 04:54:00,9.0,4.0,-100.00,SSE,165,0.0,0.0,80,0.00,,,0.00,,2014-01-08 09:54:00,
2014-01-08 05:13:00,10.0,3.0,-100.00,SSE,147,2.0,3.0,73,0.00,,,0.00,,2014-01-08 10:13:00,
2014-01-08 05:23:00,8.0,4.0,-100.00,NNW,330,0.0,1.0,82,0.00,,,0.00,,2014-01-08 10:23:00,
2014-01-08 05:33:00,8.0,4.0,-100.00,NNW,330,0.0,1.0,82,0.00,,,0.00,,2014-01-08 10:33:00,
2014-01-08 05:53:00,8.0,4.0,-100.00,NNW,330,2.0,2.0,86,0.00,,,0.00,,2014-01-08 10:53:00,
2014-01-08 06:12:00,8.0,4.0,-100.00,SW,233,0.0,1.0,86,0.00,,,0.00,,2014-01-08 11:12:00,
2014-01-08 06:23:00,7.0,4.0,-100.00,SW,234,1.0,2.0,87,0.00,,,0.00,,2014-01-08 11:23:00,
2014-01-08 06:33:00,7.0,4.0,-100.00,SW,234,1.0,2.0,87,0.00,,,0.00,,2014-01-08 11:33:00,
2014-01-08 06:53:00,7.0,4.0,-100.00,NNW,336,0.0,1.0,89,0.00,,,0.00,,2014-01-08 11:53:00,
2014-01-08 07:12:00,8.0,5.0,-100.00,NNW,328,1.0,1.0,88,0.00,,,0.00,,2014-01-08 12:12:00,
2014-01-08 07:22:00,7.0,4.0,-100.00,SW,233,0.0,1.0,88,0.00,,,0.00,,2014-01-08 12:22:00,
2014-01-08 07:32:00,7.0,4.0,-100.00,SW,233,0.0,1.0,88,0.00,,,0.00,,2014-01-08 12:32:00,
2014-01-08 07:52:00,8.0,4.0,-100.00,NNW,337,2.0,2.0,87,0.00,,,0.00,,2014-01-08 12:52:00,
2014-01-08 08:12:00,7.0,4.0,-100.00,NNW,335,0.0,0.0,89,0.00,,,0.00,,2014-01-08 13:12:00,
2014-01-08 08:22:00,8.0,5.0,-100.00,SSW,195,0.0,0.0,87,0.00,,,0.00,,2014-01-08 13:22:00,
2014-01-08 08:32:00,8.0,5.0,-100.00,SSW,195,0.0,0.0,87,0.00,,,0.00,,2014-01-08 13:32:00,
2014-01-08 08:52:00,10.0,6.0,-100.00,NE,34,0.0,0.0,83,0.00,,,0.00,,2014-01-08 13:52:00,
2014-01-08 09:11:00,13.0,7.0,-100.00,NNE,17,1.0,2.0,75,0.00,,,0.00,,2014-01-08 14:11:00,
2014-01-08 09:22:00,13.0,7.0,-100.00,NNE,17,1.0,2.0,75,0.00,,,0.00,,2014-01-08 14:22:00,
2014-01-08 10:22:00,20.0,6.0,-100.00,ENE,59,1.0,2.0,54,0.00,,,0.00,,2014-01-08 15:22:00,
2014-01-08 11:13:00,24.0,8.0,-100.00,SSE,167,4.0,6.0,49,0.00,,,0.00,,2014-01-08 16:13:00,
2014-01-08 11:23:00,27.0,8.0,-100.00,South,189,6.0,10.0,44,0.00,,,0.00,,2014-01-08 16:23:00,
2014-01-08 11:33:00,27.0,8.0,-100.00,South,189,6.0,10.0,44,0.00,,,0.00,,2014-01-08 16:33:00,
2014-01-08 11:53:00,27.0,7.0,-100.00,South,188,6.0,7.0,42,0.00,,,0.00,,2014-01-08 16:53:00,
2014-01-08 12:12:00,28.0,7.0,-100.00,South,172,4.0,6.0,41,0.00,,,0.00,,2014-01-08 17:12:00,
2014-01-08 12:23:00,29.0,7.0,-100.00,South,184,7.0,10.0,38,0.00,,,0.00,,2014-01-08 17:23:00,
2014-01-08 12:33:00,29.0,7.0,-100.00,South,184,7.0,10.0,38,0.00,,,0.00,,2014-01-08 17:33:00,
2014-01-08 12:52:00,32.0,7.0,-100.00,SW,216,4.0,6.0,34,0.00,,,0.00,,2014-01-08 17:52:00,
2014-01-08 13:11:00,33.0,8.0,-100.00,SW,215,6.0,10.0,33,0.00,,,0.00,,2014-01-08 18:11:00,
2014-01-08 13:22:00,35.0,8.0,-100.00,SW,229,5.0,7.0,32,0.00,,,0.00,,2014-01-08 18:22:00,
2014-01-08 13:33:00,35.0,8.0,-100.00,SW,229,5.0,7.0,32,0.00,,,0.00,,2014-01-08 18:33:00,
2014-01-08 13:52:00,36.0,9.0,-100.00,SSW,209,7.0,11.0,32,0.00,,,0.00,,2014-01-08 18:52:00,
2014-01-08 14:12:00,39.0,10.0,-100.00,WSW,240,6.0,9.0,30,0.00,,,0.00,,2014-01-08 19:12:00,
2014-01-08 14:22:00,39.0,10.0,-100.00,SSW,212,9.0,13.0,30,0.00,,,0.00,,2014-01-08 19:22:00,
2014-01-08 14:32:00,39.0,10.0,-100.00,SSW,212,9.0,13.0,30,0.00,,,0.00,,2014-01-08 19:32:00,
2014-01-08 14:52:00,40.0,10.0,-100.00,WSW,241,8.0,10.0,29,0.00,,,0.00,,2014-01-08 19:52:00,
2014-01-08 15:11:00,42.0,11.0,-100.00,SW,236,6.0,10.0,28,0.00,,,0.00,,2014-01-08 20:11:00,
2014-01-08 15:22:00,41.0,11.0,-100.00,SW,234,8.0,13.0,28,0.00,,,0.00,,2014-01-08 20:22:00,
2014-01-08 15:32:00,41.0,11.0,-100.00,SW,234,8.0,13.0,28,0.00,,,0.00,,2014-01-08 20:32:00,
2014-01-08 15:52:00,41.0,9.0,-100.00,SSW,200,8.0,13.0,27,0.00,,,0.00,,2014-01-08 20:52:00,
2014-01-08 16:12:00,41.0,11.0,-100.00,South,172,5.0,7.0,29,0.00,,,0.00,,2014-01-08 21:12:00,
2014-01-08 16:22:00,41.0,11.0,-100.00,SSW,195,1.0,3.0,28,0.00,,,0.00,,2014-01-08 21:22:00,
2014-01-08 16:33:00,41.0,11.0,-100.00,SSW,195,1.0,3.0,28,0.00,,,0.00,,2014-01-08 21:33:00,
2014-01-08 16:53:00,42.0,11.0,-100.00,SSW,198,6.0,8.0,29,0.00,,,0.00,,2014-01-08 21:53:00,
2014-01-08 17:13:00,42.0,12.0,-100.00,SSW,210,4.0,6.0,29,0.00,,,0.00,,2014-01-08 22:13:00,
2014-01-08 17:23:00,42.0,12.0,-100.00,SW,215,4.0,6.0,29,0.00,,,0.00,,2014-01-08 22:23:00,
2014-01-08 17:33:00,42.0,12.0,-100.00,SW,215,4.0,6.0,29,0.00,,,0.00,,2014-01-08 22:33:00,
2014-01-08 17:52:00,41.0,12.0,-100.00,SSW,199,3.0,6.0,30,0.00,,,0.00,,2014-01-08 22:52:00,
2014-01-08 18:12:00,40.0,12.0,-100.00,SSW,199,5.0,6.0,31,0.00,,,0.00,,2014-01-08 23:12:00,
2014-01-08 18:22:00,39.0,12.0,-100.00,SSW,193,5.0,6.0,33,0.00,,,0.00,,2014-01-08 23:22:00,
2014-01-08 18:33:00,39.0,12.0,-100.00,SSW,193,5.0,6.0,33,0.00,,,0.00,,2014-01-08 23:33:00,
2014-01-08 18:53:00,37.0,12.0,-100.00,SSW,202,6.0,7.0,35,0.00,,,0.00,,2014-01-08 23:53:00,
2014-01-08 19:12:00,36.0,13.0,-100.00,SSW,205,5.0,7.0,39,0.00,,,0.00,,2014-01-09 00:12:00,
2014-01-08 19:22:00,35.0,14.0,-100.00,SSW,208,5.0,8.0,42,0.00,,,0.00,,2014-01-09 00:22:00,
2014-01-08 19:32:00,35.0,14.0,-100.00,SSW,208,5.0,8.0,42,0.00,,,0.00,,2014-01-09 00:32:00,
2014-01-08 19:51:00,34.0,14.0,-100.00,SW,219,5.0,6.0,44,0.00,,,0.00,,2014-01-09 00:51:00,
2014-01-08 19:52:00,34.0,14.0,-100.00,SSW,202,5.0,7.0,43,0.00,,,0.00,,2014-01-09 00:52:00,
2014-01-08 20:12:00,33.0,15.0,-100.00,SSW,213,4.0,5.0,45,0.00,,,0.00,,2014-01-09 01:12:00,
2014-01-08 20:22:00,33.0,15.0,-100.00,SSW,213,4.0,5.0,45,0.00,,,0.00,,2014-01-09 01:22:00,
2014-01-08 20:31:00,35.0,13.0,-100.00,SSW,203,6.0,7.0,40,0.00,,,0.00,,2014-01-09 01:31:00,
2014-01-08 20:42:00,34.0,14.0,-100.00,SW,219,5.0,6.0,44,0.00,,,0.00,,2014-01-09 01:42:00,
2014-01-08 21:12:00,35.0,13.0,-100.00,SSW,203,6.0,7.0,40,0.00,,,0.00,,2014-01-09 02:12:00,
2014-01-08 21:22:00,35.0,13.0,-100.00,SSW,203,6.0,7.0,40,0.00,,,0.00,,2014-01-09 02:22:00,
2014-01-08 22:11:00,34.0,15.0,-100.00,SSW,208,6.0,7.0,45,0.00,,,0.00,,2014-01-09 03:11:00,
2014-01-08 22:21:00,34.0,15.0,-100.00,SSW,208,6.0,7.0,45,0.00,,,0.00,,2014-01-09 03:21:00,
2014-01-08 23:53:00,29.0,15.0,-100.00,NW,326,2.0,2.0,57,0.00,,,0.00,,2014-01-09 04:53:00,